User: anonymous   Login
Location: Clinton NY
(43.0598°N, 75.3602°W)
Time: 03:01:22
(UTC-05:00)
Language:

Iridium 42 - Orbit

View from above orbital plane
View from above orbital plane
View from above satellite
View from above satellite

Ground track
Ground track

The orbit data is extracted from the following two-line orbital elements,

1 25077U 97077A   17020.17237591  .00000049  00000-0  10356-4 0  9998
2 25077  86.3955  83.8243 0002368  92.0155 268.1320 14.34521896   979
Epoch (UTC): 20 January 2017 04:08:13
Eccentricity: 0.0002368
inclination: 86.3955°
perigee height: 775 km
apogee height: 778 km
right ascension of ascending node: 83.8243°
argument of perigee: 92.0155°
revolutions per day: 14.34521896
mean anomaly at epoch: 268.1320°
orbit number at epoch: 97

The dashed part of the orbit path shows where the satellite is in the earth's shadow,  

DLR